SCP
0 0 0 0 0 0 0 0 0 0 0 0 0 0 0 0 0 0 0 0 0 0 0 0 0 0 0 -0 -0 0 0 0 0 0 0 0 0 0 0 0 0 0 0 0 0 0 0 0 0
0 0 0 0 0 0 0 0 0 0 0 0 0 0 0 0 0 0 0 0 0 0 0 0 0 0 0 0 0 0 0 0 0 0 0 0 0 0 0 0 0 0 0 0 0 0 0 0 0
0 0 0 0 0 0 0 0 0 0 0 0 0 0 0 0 0 0 0 0 0 0 0 0 0 0 0 0 0 0 0 0 0 0 0 0 0 0 0 0 0 0 0 0 0 0 0 0 0
0 0 0 0 0 0 0 0 0 0 0 0 0 0 0 0 0 0 0 0 0 0 0 0 0 0 0 0 0 0 0 0 0 0 0 0 0 0 0 0 0 0 0 0 0 0 0 0 0
0 0 0 0 0 0 0 0 0 0 0 0 0 0 0 0 0 0 0 0 0 0 0 0 0 0 0 0 0 0 0 0 0 0 0 0 0 0 0 0 0 0 0 0 0 0 0 0 0
0 0 0 0 0 0 0 0 0 0 0 0 0 0 0 0 0 0 0 0 0 0 0 0 0 0 0 0 0 0 0 0 0 0 0 0 0 0 0 0 0 0 0 0 0 0 0 0 0
0 0 0 0 0 0 0 0 0 0 0 0 0 0 0 0 0 0 0 0 0 0 0 0 0 0 0 0 0 0 0 0 0 0 0 0 0 0 0 0 0 0 0 0 0 0 0 0 0
0 0 0 0 0 0 0 0 0 0 0 0 0 0 0 0 0 0 0 0 0 0 0 0 0 0 0 0 0 0 0 0 0 0 0 0 0 0 0 0 0 0 0 0 0 0 0 0 0
0 0 0 0 0 0 0 0 0 0 0 0 0 0 0 0 0 0 0 0 0 0 0 0 0 0 0 0 0 0 0 0 0 0 0 0 0 0 0 0 0 0 0 0 0 0 0 0 0
0 0 0 0 0 0 0 0 0 0 0 0 0 0 0 0 0 0 0 0 0 0 0 0 0 0 0 0 0 0 0 0 0 0 0 0 0 0 0 0 0 0 0 0 0 0 0 0 1
0 0 0 0 0 0 0 0 0 0 0 0 0 0 0 0 0 0 0 0 0 0 0 0 0 0 0 0 0 0 0 0 0 0 0 0 0 0 0 0 0 0 0 0 0 0 0 1 1
0 0 0 0 0 0 0 0 0 0 0 0 0 0 0 0 0 0 0 0 0 0 0 0 0 0 0 0 0 0 0 0 0 0 0 0 0 0 0 0 0 0 0 0 0 0 0 0 1
0 0 0 0 0 0 0 0 0 0 0 0 0 0 0 0 0 0 0 0 0 0 0 0 0 0 0 0 0 -0 -0 -0 -0 0 0 0 0 0 0 0 0 0 0 0 0 0 0 0 0
0 0 0 0 0 0 0 0 0 0 0 0 0 0 0 0 0 0 0 0 0 0 0 0 0 0 0 0 0 -0 -0 -0 -0 0 0 0 0 0 0 0 0 0 0 0 0 0 0 0 0
0 0 0 0 0 0 0 0 0 0 0 0 0 0 0 0 0 0 0 0 0 0 0 0 0 0 0 0 0 -0 -0 -0 0 0 0 0 0 0 0 0 0 0 0 0 0 0 0 0 0
0 0 0 0 0 0 0 0 0 0 0 0 0 0 0 0 0 0 0 0 0 0 0 0 0 0 0 0 0 -0 -0 0 -0 -0 0 0 0 0 0 0 0 0 0 0 0 0 0 0 0
0 0 0 0 0 0 0 0 0 0 0 0 0 0 0 0 0 0 0 0 0 0 0 0 0 0 0 0 0 0 0 -0 -0 0 0 0 0 0 0 0 0 0 0 0 0 0 0 0 0
0 0 0 0 0 0 0 0 0 0 0 0 0 0 0 0 0 0 0 0 0 0 0 0 0 0 0 0 0 0 0 -0 -0 0 0 0 0 0 0 0 0 0 0 0 0 0 0 0 0
0 0 0 0 0 0 0 0 0 0 0 0 0 0 0 0 0 0 0 0 0 0 0 0 0 0 0 0 0 0 0 0 0 0 0 0 0 0 0 0 0 0 0 0 0 0 0 0 0
0 0 0 0 0 0 0 0 0 0 0 0 0 0 0 0 0 0 0 0 0 0 0 0 0 0 0 0 0 0 0 0 0 0 0 0 0 0 0 0 0 0 0 0 0 0 0 0 0
0 0 0 0 0 0 0 0 0 0 0 0 0 0 0 0 0 0 0 0 0 0 0 0 0 0 0 0 0 0 0 0 0 0 0 0 0 0 0 0 0 0 0 0 0 0 0 0 0
0 0 0 0 0 0 0 0 0 0 0 0 0 0 0 0 0 0 0 0 0 0 0 0 0 0 0 0 0 0 0 0 0 0 0 0 0 0 0 0 0 0 0 0 0 0 0 0 0
0 0 0 0 0 0 0 0 0 0 0 0 0 0 0 0 0 0 0 0 0 0 0 0 0 0 0 0 0 0 0 0 0 0 0 0 0 0 0 0 0 0 0 0 0 0 0 0 0
0 0 0 0 0 0 0 0 0 0 0 0 0 0 0 0 0 0 0 0 0 0 0 0 0 0 0 0 0 0 0 0 0 0 0 0 0 0 0 0 0 0 0 0 0 0 0 0 0
0 0 0 0 0 0 0 0 0 0 0 0 0 0 0 0 -0 -0 0 0 0 0 0 0 0 0 0 0 0 0 0 0 0 0 0 0 0 0 0 0 0 0 0 0 0 0 0 0 0
0 0 0 0 0 0 0 0 0 0 0 0 0 0 0 0 -0 -0 0 0 0 0 0 0 0 0 0 0 0 0 0 0 0 0 0 0 0 0 0 0 0 0 0 0 0 0 0 0 0
0 0 0 0 0 0 0 0 0 0 0 -0 -0 0 0 0 0 -0 0 0 0 0 0 0 0 0 0 0 0 0 0 0 0 0 0 0 0 0 0 0 0 0 0 0 0 0 0 0 0
0 0 0 0 0 0 0 0 -0 0 0 0 0 0 0 0 0 0 0 0 0 0 0 0 0 0 0 0 0 0 0 0 0 0 0 0 0 0 0 0 0 0 0 0 0 0 0 0 0
0 0 0 0 0 0 0 0 0 0 0 0 0 0 0 0 0 0 0 0 0 0 0 0 0 0 0 0 0 0 0 0 0 0 0 0 0 0 0 0 0 0 0 0 0 0 0 0 0
0 0 0 0 0 0 0 0 0 0 0 0 0 0 0 0 0 0 0 0 0 0 0 0 0 0 0 0 0 0 0 0 0 0 0 0 0 0 0 0 0 0 0 0 0 0 0 0 0
Wind_Speed_500mb
18 21 21 13 10 8 14 9 2 11 10 8 3 4 8 16 6 7 21 18 15 13 17 18 19 20 16 9 7 9 12 15 16 18 21 21 20 19 20 20 21 23 24 26 25 27 27 26 26
23 27 21 4 8 14 8 10 14 8 8 9 10 6 7 9 11 22 16 18 14 12 12 14 17 17 19 18 17 12 11 16 18 21 22 24 25 23 24 22 21 26 27 30 30 29 30 30 28
28 29 9 6 6 11 2 11 16 13 7 11 7 8 7 12 16 16 20 18 12 8 9 11 12 13 13 18 18 17 13 10 17 25 26 27 30 30 28 26 23 26 29 32 34 33 33 32 32
18 5 6 8 11 2 3 15 11 14 10 6 8 12 10 13 14 19 23 15 9 5 8 12 15 17 17 17 20 22 22 19 18 19 24 31 32 34 33 32 31 30 30 31 35 36 35 37 35
19 4 5 6 8 3 4 6 6 10 9 9 5 11 11 17 23 27 20 12 3 4 10 15 19 21 21 24 26 27 28 29 30 29 27 28 33 36 38 38 37 36 34 34 36 39 39 39 37
5 2 7 15 8 7 6 5 6 7 7 8 9 17 11 22 28 26 20 12 7 7 12 17 21 23 22 21 22 27 32 35 35 37 39 37 34 34 39 40 44 44 43 41 41 43 44 45 42
5 5 5 4 4 7 9 7 9 11 11 7 9 12 12 26 28 24 16 10 9 12 15 18 19 18 18 19 21 24 29 35 40 41 42 45 45 43 39 44 47 49 52 51 48 48 49 47 46
5 3 6 7 9 4 11 11 6 10 9 9 10 8 7 28 31 24 17 13 14 16 19 18 17 16 15 19 24 30 33 34 38 44 47 47 49 51 50 48 52 57 58 60 57 54 54 53 50
10 7 11 8 11 6 10 12 7 7 6 7 10 5 10 28 30 25 19 16 16 17 18 20 20 19 21 26 34 42 46 47 46 45 47 51 53 54 56 55 57 55 61 65 66 63 59 58 55
5 7 6 4 4 4 12 9 11 8 13 14 14 18 17 24 27 24 20 15 19 19 20 20 22 27 30 34 45 51 54 55 54 54 53 52 53 58 58 60 60 62 60 64 71 71 68 63 62
2 3 7 7 6 5 8 7 6 9 15 21 25 27 24 26 26 26 24 21 23 22 22 24 26 30 33 36 45 51 55 62 65 63 57 56 56 56 59 63 62 65 65 66 65 76 73 71 68
4 5 2 9 6 4 4 3 9 19 7 7 13 19 26 25 24 25 25 26 27 27 30 30 30 32 32 39 49 58 67 71 71 65 65 62 58 58 59 61 64 65 67 70 69 67 77 77 72
5 8 3 3 3 5 7 15 15 26 26 19 18 21 24 22 22 27 31 36 37 34 32 29 30 33 39 47 58 69 78 83 79 70 63 62 62 62 61 62 63 65 67 70 71 71 69 81 80
6 8 3 0 2 3 7 9 4 6 15 39 34 25 26 21 20 32 38 40 38 34 33 31 33 36 42 52 62 73 83 82 78 75 70 64 62 62 64 64 64 65 66 68 73 75 73 76 84
7 6 5 3 2 2 6 17 21 25 13 17 36 32 32 26 32 35 35 41 40 39 37 34 36 41 48 57 66 75 79 77 73 70 70 68 62 60 62 66 66 65 65 68 69 75 78 78 76
3 1 4 5 4 3 3 15 3 6 19 25 31 34 33 32 30 30 38 43 43 40 34 34 40 46 54 61 67 70 71 72 72 70 69 67 63 61 60 62 64 64 64 64 66 68 73 78 85
8 3 5 4 4 6 9 17 8 9 15 31 38 42 41 41 37 38 43 44 42 36 34 38 42 49 57 64 67 69 70 69 69 68 67 67 66 62 60 60 61 61 61 63 61 61 65 68 75
3 5 6 11 4 8 24 37 43 39 37 50 49 49 45 39 30 34 40 40 37 35 37 40 46 53 60 66 68 71 70 69 70 71 69 67 66 64 61 57 57 57 58 60 59 58 57 65 61
3 3 11 8 4 13 17 28 46 42 37 42 39 32 25 21 21 31 35 35 35 36 39 44 49 55 62 66 68 72 72 73 72 72 72 70 67 60 57 56 57 52 54 55 52 51 52 54 54
2 3 8 14 1 11 23 43 43 18 5 7 5 5 7 10 20 27 31 34 37 39 42 46 51 58 64 66 69 71 73 74 76 72 69 66 59 53 50 48 51 50 52 53 50 47 47 49 44
5 7 5 10 18 3 25 17 6 4 5 5 7 2 1 8 14 22 29 34 38 43 46 48 53 63 64 65 70 72 72 71 71 63 63 60 62 58 49 51 54 56 55 58 55 47 47 49 48
6 1 1 8 13 8 15 11 15 5 12 5 6 4 2 6 15 23 31 38 44 47 50 51 57 64 63 64 69 69 70 72 70 68 65 61 58 54 52 50 50 53 56 60 58 51 52 48 55
2 3 4 4 1 7 3 6 9 5 3 3 9 6 2 5 15 26 35 43 50 53 53 53 62 63 62 65 67 69 72 71 69 62 58 54 50 48 46 49 53 54 55 60 59 57 58 53 57
12 2 4 4 1 5 4 5 11 7 9 11 11 8 2 7 16 22 31 41 50 54 55 56 64 61 61 65 65 69 74 76 68 59 55 49 47 46 46 44 45 50 49 44 49 51 64 67 67
3 3 5 4 3 5 2 7 19 9 12 7 9 8 9 12 21 27 36 44 47 49 51 56 59 57 61 63 67 73 75 68 60 59 53 47 49 51 47 42 44 46 46 48 53 53 63 66 69
3 3 4 8 5 9 5 13 5 2 7 15 9 14 17 10 24 46 42 43 41 41 47 52 51 56 57 61 71 70 64 58 57 54 51 51 50 50 46 45 45 44 43 48 50 58 69 73 71
6 5 4 8 3 5 5 11 29 7 17 25 25 14 20 25 48 59 46 42 40 37 37 41 47 52 52 64 67 60 55 52 51 48 47 47 47 45 45 46 48 45 47 54 57 68 74 77 74
3 8 3 2 6 9 8 10 11 8 3 2 3 17 26 27 66 55 47 39 31 29 32 38 45 48 56 62 58 54 51 45 44 44 43 44 45 45 46 46 45 44 50 55 62 63 74 71 73
7 5 2 2 3 6 10 10 12 11 6 11 19 28 42 70 63 51 41 31 26 27 32 39 43 47 57 57 51 48 43 42 40 39 40 41 41 40 41 42 44 49 51 56 56 53 52 65 72
2 4 11 8 9 4 6 17 4 12 12 15 29 60 69 61 54 46 39 27 24 26 33 37 38 46 51 51 46 42 39 38 35 36 38 38 38 38 39 41 41 44 48 46 47 45 50 57 59
Wind_Direction_500mb
183 176 157 144 202 236 218 189 125 150 150 50 73 266 86 41 14 85 133 135 107 79 58 46 35 23 32 24 19 275 261 262 260 249 229 229 237 245 256 264 263 263 258 252 245 244 235 234 239
157 154 146 175 235 211 182 152 173 125 115 120 92 75 62 84 80 127 125 131 111 77 52 42 34 19 16 15 22 3 288 269 272 268 266 257 243 240 250 252 255 263 257 249 247 241 239 244 243
148 149 178 204 229 227 182 164 134 108 89 170 127 67 83 107 117 136 143 132 107 62 35 22 17 10 358 350 353 347 346 321 284 274 272 269 266 257 244 244 243 255 255 249 245 242 243 243 249
145 129 69 247 219 124 55 141 134 143 111 134 141 107 96 145 144 153 147 132 99 43 10 360 350 342 336 328 326 326 326 320 312 293 270 263 262 264 261 249 241 242 247 248 247 245 245 253 254
149 126 184 231 208 140 141 123 155 163 132 125 173 133 121 158 156 153 150 140 128 313 331 332 331 328 324 316 313 308 305 304 301 295 290 278 271 264 254 252 253 248 244 240 241 246 249 251 251
134 185 206 225 182 162 179 165 171 170 155 134 143 140 140 167 160 163 163 174 211 284 311 319 320 320 319 318 314 309 307 303 297 293 290 287 281 273 267 251 246 248 249 245 240 241 245 249 248
183 204 250 223 185 194 183 165 206 176 162 149 148 162 153 175 175 177 186 216 272 300 311 316 316 318 326 333 336 329 319 311 303 296 290 286 282 278 274 262 252 249 246 245 245 242 244 245 248
126 221 189 214 208 205 145 165 169 203 169 165 179 201 175 190 188 191 206 240 275 297 307 311 309 313 322 336 336 336 335 329 317 306 297 289 282 277 273 265 257 252 252 251 245 244 245 242 243
142 218 233 210 186 136 156 182 182 214 187 192 201 197 184 178 191 202 223 254 275 291 303 309 309 306 311 322 332 334 332 328 321 314 305 297 290 281 273 268 263 258 252 249 249 246 244 244 242
198 223 228 59 118 181 165 200 174 210 197 218 213 214 190 185 202 215 230 232 260 267 278 290 297 300 308 320 331 334 331 328 323 315 307 300 292 288 282 273 266 260 257 253 249 247 245 244 242
80 236 126 136 138 158 176 226 212 219 223 217 210 199 203 201 214 227 237 241 243 259 278 291 301 306 308 315 325 328 331 332 326 320 310 299 292 286 282 280 273 265 258 255 253 247 245 244 246
138 80 101 145 160 172 221 259 249 228 250 192 178 190 204 211 229 245 245 244 251 258 269 277 285 297 303 313 322 327 329 327 326 319 313 304 295 287 283 276 274 271 264 257 253 251 243 242 242
98 142 92 126 187 293 280 257 266 256 241 215 206 206 208 222 237 246 244 240 245 254 265 274 291 305 312 319 324 328 329 326 322 317 310 303 297 291 284 278 272 267 265 262 257 252 247 241 241
99 115 119 229 177 253 282 276 290 255 238 225 221 222 209 219 262 255 246 240 244 255 266 276 289 300 308 316 321 324 325 321 318 314 309 303 297 292 287 281 274 269 264 260 258 254 249 243 238
108 142 141 131 339 297 331 255 234 253 252 218 212 207 212 246 284 264 246 239 243 256 264 277 293 304 311 315 318 322 322 320 317 312 308 303 298 292 287 282 276 271 266 262 258 254 252 245 237
53 199 256 122 323 172 243 278 186 204 202 213 209 217 231 263 271 256 239 235 242 254 263 283 294 304 311 316 318 320 322 322 319 313 308 302 296 293 288 282 278 272 267 263 259 256 252 250 244
34 270 244 243 51 311 231 282 217 189 214 239 235 238 249 270 267 251 234 233 240 250 265 279 292 302 308 312 315 317 321 323 321 314 309 305 299 292 286 281 276 272 267 263 260 257 255 251 249
288 283 257 266 48 273 265 266 275 265 258 259 261 261 264 268 252 233 226 229 238 251 269 284 294 303 309 313 316 317 319 321 323 318 311 305 298 291 284 278 272 270 268 263 261 260 254 254 251
102 263 275 271 15 311 279 285 282 289 268 262 268 261 253 239 220 215 220 230 243 260 275 286 298 309 313 314 315 315 316 317 319 317 311 305 298 287 278 275 275 268 264 265 261 263 260 255 252
103 278 274 287 272 312 300 292 284 294 230 215 221 194 192 188 198 211 222 236 251 265 278 292 304 311 311 309 311 313 313 314 315 315 311 305 298 287 276 274 274 270 267 263 261 260 260 258 246
233 242 277 287 315 213 313 277 293 152 237 235 238 262 218 195 208 223 235 248 260 271 281 293 305 310 306 306 310 312 311 310 312 309 303 298 292 282 271 268 269 267 261 265 261 259 254 257 250
266 131 299 324 338 301 6 290 295 332 305 252 186 182 204 234 242 244 251 259 265 271 279 292 304 310 305 307 309 311 310 309 309 305 302 298 291 282 276 273 271 268 266 262 263 262 256 250 250
58 43 34 48 69 309 68 246 264 318 142 98 170 149 146 294 286 281 274 272 273 276 282 293 305 309 305 307 310 310 310 308 306 302 297 294 286 281 277 272 270 268 266 268 264 258 251 254 252
133 95 63 97 149 249 83 295 264 209 165 148 152 147 73 14 339 315 303 293 286 281 283 291 305 308 307 310 311 311 309 309 304 299 294 291 288 284 285 283 278 276 273 269 266 260 262 263 254
170 261 293 260 237 294 133 246 260 249 218 186 205 182 162 69 16 334 312 305 298 285 281 295 304 306 310 313 314 312 311 306 302 300 297 292 291 290 284 282 279 276 270 265 262 270 271 261 256
145 269 249 278 272 317 160 237 245 284 303 236 238 262 254 242 352 341 323 313 302 291 288 298 302 310 314 318 316 314 313 309 307 305 301 294 291 292 287 286 285 284 270 268 272 273 271 263 255
141 203 51 99 97 270 255 270 273 255 258 261 266 256 251 258 325 330 323 314 302 295 296 300 310 313 318 322 320 319 318 311 308 305 300 297 295 297 296 289 287 285 274 270 276 265 269 259 256
275 125 159 155 285 278 257 272 256 330 11 92 224 258 289 288 324 327 323 313 305 301 303 312 315 317 322 323 324 323 318 316 311 306 305 302 302 301 297 292 292 289 279 273 276 272 268 252 248
148 196 77 340 268 264 304 271 203 222 226 240 269 293 300 319 324 324 320 313 305 306 312 319 319 321 325 326 328 323 323 318 311 308 308 309 307 305 301 297 293 285 277 279 280 273 262 246 243
247 236 196 227 200 239 288 271 109 242 259 262 288 307 315 319 324 324 317 309 307 310 318 324 322 329 331 334 329 327 326 318 314 315 314 313 310 308 303 300 295 286 285 280 275 273 259 248 246
Wind_Speed_850mb
18 21 21 13 10 8 14 9 2 11 10 8 3 4 8 16 6 7 21 18 15 13 17 18 19 20 16 9 7 9 12 15 16 18 21 21 20 19 20 20 21 23 24 26 25 27 27 26 26
23 27 21 4 8 14 8 10 14 8 8 9 10 6 7 9 11 22 16 18 14 12 12 14 17 17 19 18 17 12 11 16 18 21 22 24 25 23 24 22 21 26 27 30 30 29 30 30 28
28 29 9 6 6 11 2 11 16 13 7 11 7 8 7 12 16 16 20 18 12 8 9 11 12 13 13 18 18 17 13 10 17 25 26 27 30 30 28 26 23 26 29 32 34 33 33 32 32
18 5 6 8 11 2 3 15 11 14 10 6 8 12 10 13 14 19 23 15 9 5 8 12 15 17 17 17 20 22 22 19 18 19 24 31 32 34 33 32 31 30 30 31 35 36 35 37 35
19 4 5 6 8 3 4 6 6 10 9 9 5 11 11 17 23 27 20 12 3 4 10 15 19 21 21 24 26 27 28 29 30 29 27 28 33 36 38 38 37 36 34 34 36 39 39 39 37
5 2 7 15 8 7 6 5 6 7 7 8 9 17 11 22 28 26 20 12 7 7 12 17 21 23 22 21 22 27 32 35 35 37 39 37 34 34 39 40 44 44 43 41 41 43 44 45 42
5 5 5 4 4 7 9 7 9 11 11 7 9 12 12 26 28 24 16 10 9 12 15 18 19 18 18 19 21 24 29 35 40 41 42 45 45 43 39 44 47 49 52 51 48 48 49 47 46
5 3 6 7 9 4 11 11 6 10 9 9 10 8 7 28 31 24 17 13 14 16 19 18 17 16 15 19 24 30 33 34 38 44 47 47 49 51 50 48 52 57 58 60 57 54 54 53 50
10 7 11 8 11 6 10 12 7 7 6 7 10 5 10 28 30 25 19 16 16 17 18 20 20 19 21 26 34 42 46 47 46 45 47 51 53 54 56 55 57 55 61 65 66 63 59 58 55
5 7 6 4 4 4 12 9 11 8 13 14 14 18 17 24 27 24 20 15 19 19 20 20 22 27 30 34 45 51 54 55 54 54 53 52 53 58 58 60 60 62 60 64 71 71 68 63 62
2 3 7 7 6 5 8 7 6 9 15 21 25 27 24 26 26 26 24 21 23 22 22 24 26 30 33 36 45 51 55 62 65 63 57 56 56 56 59 63 62 65 65 66 65 76 73 71 68
4 5 2 9 6 4 4 3 9 19 7 7 13 19 26 25 24 25 25 26 27 27 30 30 30 32 32 39 49 58 67 71 71 65 65 62 58 58 59 61 64 65 67 70 69 67 77 77 72
5 8 3 3 3 5 7 15 15 26 26 19 18 21 24 22 22 27 31 36 37 34 32 29 30 33 39 47 58 69 78 83 79 70 63 62 62 62 61 62 63 65 67 70 71 71 69 81 80
6 8 3 0 2 3 7 9 4 6 15 39 34 25 26 21 20 32 38 40 38 34 33 31 33 36 42 52 62 73 83 82 78 75 70 64 62 62 64 64 64 65 66 68 73 75 73 76 84
7 6 5 3 2 2 6 17 21 25 13 17 36 32 32 26 32 35 35 41 40 39 37 34 36 41 48 57 66 75 79 77 73 70 70 68 62 60 62 66 66 65 65 68 69 75 78 78 76
3 1 4 5 4 3 3 15 3 6 19 25 31 34 33 32 30 30 38 43 43 40 34 34 40 46 54 61 67 70 71 72 72 70 69 67 63 61 60 62 64 64 64 64 66 68 73 78 85
8 3 5 4 4 6 9 17 8 9 15 31 38 42 41 41 37 38 43 44 42 36 34 38 42 49 57 64 67 69 70 69 69 68 67 67 66 62 60 60 61 61 61 63 61 61 65 68 75
3 5 6 11 4 8 24 37 43 39 37 50 49 49 45 39 30 34 40 40 37 35 37 40 46 53 60 66 68 71 70 69 70 71 69 67 66 64 61 57 57 57 58 60 59 58 57 65 61
3 3 11 8 4 13 17 28 46 42 37 42 39 32 25 21 21 31 35 35 35 36 39 44 49 55 62 66 68 72 72 73 72 72 72 70 67 60 57 56 57 52 54 55 52 51 52 54 54
2 3 8 14 1 11 23 43 43 18 5 7 5 5 7 10 20 27 31 34 37 39 42 46 51 58 64 66 69 71 73 74 76 72 69 66 59 53 50 48 51 50 52 53 50 47 47 49 44
5 7 5 10 18 3 25 17 6 4 5 5 7 2 1 8 14 22 29 34 38 43 46 48 53 63 64 65 70 72 72 71 71 63 63 60 62 58 49 51 54 56 55 58 55 47 47 49 48
6 1 1 8 13 8 15 11 15 5 12 5 6 4 2 6 15 23 31 38 44 47 50 51 57 64 63 64 69 69 70 72 70 68 65 61 58 54 52 50 50 53 56 60 58 51 52 48 55
2 3 4 4 1 7 3 6 9 5 3 3 9 6 2 5 15 26 35 43 50 53 53 53 62 63 62 65 67 69 72 71 69 62 58 54 50 48 46 49 53 54 55 60 59 57 58 53 57
12 2 4 4 1 5 4 5 11 7 9 11 11 8 2 7 16 22 31 41 50 54 55 56 64 61 61 65 65 69 74 76 68 59 55 49 47 46 46 44 45 50 49 44 49 51 64 67 67
3 3 5 4 3 5 2 7 19 9 12 7 9 8 9 12 21 27 36 44 47 49 51 56 59 57 61 63 67 73 75 68 60 59 53 47 49 51 47 42 44 46 46 48 53 53 63 66 69
3 3 4 8 5 9 5 13 5 2 7 15 9 14 17 10 24 46 42 43 41 41 47 52 51 56 57 61 71 70 64 58 57 54 51 51 50 50 46 45 45 44 43 48 50 58 69 73 71
6 5 4 8 3 5 5 11 29 7 17 25 25 14 20 25 48 59 46 42 40 37 37 41 47 52 52 64 67 60 55 52 51 48 47 47 47 45 45 46 48 45 47 54 57 68 74 77 74
3 8 3 2 6 9 8 10 11 8 3 2 3 17 26 27 66 55 47 39 31 29 32 38 45 48 56 62 58 54 51 45 44 44 43 44 45 45 46 46 45 44 50 55 62 63 74 71 73
7 5 2 2 3 6 10 10 12 11 6 11 19 28 42 70 63 51 41 31 26 27 32 39 43 47 57 57 51 48 43 42 40 39 40 41 41 40 41 42 44 49 51 56 56 53 52 65 72
2 4 11 8 9 4 6 17 4 12 12 15 29 60 69 61 54 46 39 27 24 26 33 37 38 46 51 51 46 42 39 38 35 36 38 38 38 38 39 41 41 44 48 46 47 45 50 57 59
Wind_Direction_850mb
183 176 157 144 202 236 218 189 125 150 150 50 73 266 86 41 14 85 133 135 107 79 58 46 35 23 32 24 19 275 261 262 260 249 229 229 237 245 256 264 263 263 258 252 245 244 235 234 239
157 154 146 175 235 211 182 152 173 125 115 120 92 75 62 84 80 127 125 131 111 77 52 42 34 19 16 15 22 3 288 269 272 268 266 257 243 240 250 252 255 263 257 249 247 241 239 244 243
148 149 178 204 229 227 182 164 134 108 89 170 127 67 83 107 117 136 143 132 107 62 35 22 17 10 358 350 353 347 346 321 284 274 272 269 266 257 244 244 243 255 255 249 245 242 243 243 249
145 129 69 247 219 124 55 141 134 143 111 134 141 107 96 145 144 153 147 132 99 43 10 360 350 342 336 328 326 326 326 320 312 293 270 263 262 264 261 249 241 242 247 248 247 245 245 253 254
149 126 184 231 208 140 141 123 155 163 132 125 173 133 121 158 156 153 150 140 128 313 331 332 331 328 324 316 313 308 305 304 301 295 290 278 271 264 254 252 253 248 244 240 241 246 249 251 251
134 185 206 225 182 162 179 165 171 170 155 134 143 140 140 167 160 163 163 174 211 284 311 319 320 320 319 318 314 309 307 303 297 293 290 287 281 273 267 251 246 248 249 245 240 241 245 249 248
183 204 250 223 185 194 183 165 206 176 162 149 148 162 153 175 175 177 186 216 272 300 311 316 316 318 326 333 336 329 319 311 303 296 290 286 282 278 274 262 252 249 246 245 245 242 244 245 248
126 221 189 214 208 205 145 165 169 203 169 165 179 201 175 190 188 191 206 240 275 297 307 311 309 313 322 336 336 336 335 329 317 306 297 289 282 277 273 265 257 252 252 251 245 244 245 242 243
142 218 233 210 186 136 156 182 182 214 187 192 201 197 184 178 191 202 223 254 275 291 303 309 309 306 311 322 332 334 332 328 321 314 305 297 290 281 273 268 263 258 252 249 249 246 244 244 242
198 223 228 59 118 181 165 200 174 210 197 218 213 214 190 185 202 215 230 232 260 267 278 290 297 300 308 320 331 334 331 328 323 315 307 300 292 288 282 273 266 260 257 253 249 247 245 244 242
80 236 126 136 138 158 176 226 212 219 223 217 210 199 203 201 214 227 237 241 243 259 278 291 301 306 308 315 325 328 331 332 326 320 310 299 292 286 282 280 273 265 258 255 253 247 245 244 246
138 80 101 145 160 172 221 259 249 228 250 192 178 190 204 211 229 245 245 244 251 258 269 277 285 297 303 313 322 327 329 327 326 319 313 304 295 287 283 276 274 271 264 257 253 251 243 242 242
98 142 92 126 187 293 280 257 266 256 241 215 206 206 208 222 237 246 244 240 245 254 265 274 291 305 312 319 324 328 329 326 322 317 310 303 297 291 284 278 272 267 265 262 257 252 247 241 241
99 115 119 229 177 253 282 276 290 255 238 225 221 222 209 219 262 255 246 240 244 255 266 276 289 300 308 316 321 324 325 321 318 314 309 303 297 292 287 281 274 269 264 260 258 254 249 243 238
108 142 141 131 339 297 331 255 234 253 252 218 212 207 212 246 284 264 246 239 243 256 264 277 293 304 311 315 318 322 322 320 317 312 308 303 298 292 287 282 276 271 266 262 258 254 252 245 237
53 199 256 122 323 172 243 278 186 204 202 213 209 217 231 263 271 256 239 235 242 254 263 283 294 304 311 316 318 320 322 322 319 313 308 302 296 293 288 282 278 272 267 263 259 256 252 250 244
34 270 244 243 51 311 231 282 217 189 214 239 235 238 249 270 267 251 234 233 240 250 265 279 292 302 308 312 315 317 321 323 321 314 309 305 299 292 286 281 276 272 267 263 260 257 255 251 249
288 283 257 266 48 273 265 266 275 265 258 259 261 261 264 268 252 233 226 229 238 251 269 284 294 303 309 313 316 317 319 321 323 318 311 305 298 291 284 278 272 270 268 263 261 260 254 254 251
102 263 275 271 15 311 279 285 282 289 268 262 268 261 253 239 220 215 220 230 243 260 275 286 298 309 313 314 315 315 316 317 319 317 311 305 298 287 278 275 275 268 264 265 261 263 260 255 252
103 278 274 287 272 312 300 292 284 294 230 215 221 194 192 188 198 211 222 236 251 265 278 292 304 311 311 309 311 313 313 314 315 315 311 305 298 287 276 274 274 270 267 263 261 260 260 258 246
233 242 277 287 315 213 313 277 293 152 237 235 238 262 218 195 208 223 235 248 260 271 281 293 305 310 306 306 310 312 311 310 312 309 303 298 292 282 271 268 269 267 261 265 261 259 254 257 250
266 131 299 324 338 301 6 290 295 332 305 252 186 182 204 234 242 244 251 259 265 271 279 292 304 310 305 307 309 311 310 309 309 305 302 298 291 282 276 273 271 268 266 262 263 262 256 250 250
58 43 34 48 69 309 68 246 264 318 142 98 170 149 146 294 286 281 274 272 273 276 282 293 305 309 305 307 310 310 310 308 306 302 297 294 286 281 277 272 270 268 266 268 264 258 251 254 252
133 95 63 97 149 249 83 295 264 209 165 148 152 147 73 14 339 315 303 293 286 281 283 291 305 308 307 310 311 311 309 309 304 299 294 291 288 284 285 283 278 276 273 269 266 260 262 263 254
170 261 293 260 237 294 133 246 260 249 218 186 205 182 162 69 16 334 312 305 298 285 281 295 304 306 310 313 314 312 311 306 302 300 297 292 291 290 284 282 279 276 270 265 262 270 271 261 256
145 269 249 278 272 317 160 237 245 284 303 236 238 262 254 242 352 341 323 313 302 291 288 298 302 310 314 318 316 314 313 309 307 305 301 294 291 292 287 286 285 284 270 268 272 273 271 263 255
141 203 51 99 97 270 255 270 273 255 258 261 266 256 251 258 325 330 323 314 302 295 296 300 310 313 318 322 320 319 318 311 308 305 300 297 295 297 296 289 287 285 274 270 276 265 269 259 256
275 125 159 155 285 278 257 272 256 330 11 92 224 258 289 288 324 327 323 313 305 301 303 312 315 317 322 323 324 323 318 316 311 306 305 302 302 301 297 292 292 289 279 273 276 272 268 252 248
148 196 77 340 268 264 304 271 203 222 226 240 269 293 300 319 324 324 320 313 305 306 312 319 319 321 325 326 328 323 323 318 311 308 308 309 307 305 301 297 293 285 277 279 280 273 262 246 243
247 236 196 227 200 239 288 271 109 242 259 262 288 307 315 319 324 324 317 309 307 310 318 324 322 329 331 334 329 327 326 318 314 315 314 313 310 308 303 300 295 286 285 280 275 273 259 248 246